iso_date,epoch_date,Year,Hour,Min,DOY,POS_DOY,Lat,Lon,BP,Ts,Ta,has_bp,has_ts,has_ta,BuoyID,Buoy_Type,Buoy_Owner,Logistics,Hemisphere
2020-07-06T18:04:01Z,1594058642,2020,18,4,188.7528,188.7528,60.117,-60.031,-999.00,4.54,-999.0,no,yes,no,300234068245460,SVPGHI,AOML,UNKNOWN,North
2020-07-06T19:02:03Z,1594062124,2020,19,2,188.7931,188.7931,60.107,-60.058,-999.00,4.58,-999.0,no,yes,no,300234068245460,SVPGHI,AOML,UNKNOWN,North
2020-07-06T20:00:57Z,1594065658,2020,20,1,188.834,188.834,60.107,-60.093,-999.00,4.63,-999.0,no,yes,no,300234068245460,SVPGHI,AOML,UNKNOWN,North
2020-07-06T21:00:00Z,1594069200,2020,21,0,188.875,188.875,60.113,-60.125,-999.00,4.63,-999.0,no,yes,no,300234068245460,SVPGHI,AOML,UNKNOWN,North
2020-07-06T22:00:02Z,1594072803,2020,22,0,188.9167,188.9167,60.13,-60.148,-999.00,4.62,-999.0,no,yes,no,300234068245460,SVPGHI,AOML,UNKNOWN,North
2020-07-06T22:59:57Z,1594076397,2020,23,0,188.9583,188.9583,60.149,-60.157,-999.00,4.59,-999.0,no,yes,no,300234068245460,SVPGHI,AOML,UNKNOWN,North
2020-07-07T00:00:00Z,1594080000,2020,0,0,189.0,189.0,60.171,-60.147,-999.00,4.53,-999.0,no,yes,no,300234068245460,SVPGHI,AOML,UNKNOWN,North
2020-07-07T01:00:02Z,1594083603,2020,1,0,189.0417,189.0417,60.19,-60.11,-999.00,4.52,-999.0,no,yes,no,300234068245460,SVPGHI,AOML,UNKNOWN,North
2020-07-07T01:59:57Z,1594087197,2020,2,0,189.0833,189.0833,60.198,-60.058,-999.00,4.51,-999.0,no,yes,no,300234068245460,SVPGHI,AOML,UNKNOWN,North
2020-07-07T03:00:00Z,1594090800,2020,3,0,189.125,189.125,60.195,-60.003,-999.00,4.44,-999.0,no,yes,no,300234068245460,SVPGHI,AOML,UNKNOWN,North
2020-07-07T04:00:02Z,1594094403,2020,4,0,189.1667,189.1667,60.179,-59.963,-999.00,4.34,-999.0,no,yes,no,300234068245460,SVPGHI,AOML,UNKNOWN,North
2020-07-07T04:59:57Z,1594097997,2020,5,0,189.2083,189.2083,60.16,-59.932,-999.00,4.33,-999.0,no,yes,no,300234068245460,SVPGHI,AOML,UNKNOWN,North
2020-07-07T06:01:00Z,1594101660,2020,6,1,189.2507,189.2507,60.137,-59.918,-999.00,4.31,-999.0,no,yes,no,300234068245460,SVPGHI,AOML,UNKNOWN,North
2020-07-07T07:00:02Z,1594105203,2020,7,0,189.2917,189.2917,60.12,-59.928,-999.00,4.45,-999.0,no,yes,no,300234068245460,SVPGHI,AOML,UNKNOWN,North
2020-07-07T07:59:57Z,1594108797,2020,8,0,189.3333,189.3333,60.112,-59.949,-999.00,4.49,-999.0,no,yes,no,300234068245460,SVPGHI,AOML,UNKNOWN,North
2020-07-07T09:00:00Z,1594112400,2020,9,0,189.375,189.375,60.11,-59.997,-999.00,4.16,-999.0,no,yes,no,300234068245460,SVPGHI,AOML,UNKNOWN,North
2020-07-07T10:00:02Z,1594116003,2020,10,0,189.4167,189.4167,60.119,-60.014,-999.00,4.13,-999.0,no,yes,no,300234068245460,SVPGHI,AOML,UNKNOWN,North
2020-07-07T10:59:57Z,1594119597,2020,11,0,189.4583,189.4583,60.134,-60.035,-999.00,4.16,-999.0,no,yes,no,300234068245460,SVPGHI,AOML,UNKNOWN,North
2020-07-07T12:00:00Z,1594123200,2020,12,0,189.5,189.5,60.155,-60.041,-999.00,4.19,-999.0,no,yes,no,300234068245460,SVPGHI,AOML,UNKNOWN,North
2020-07-07T13:00:02Z,1594126803,2020,13,0,189.5417,189.5417,60.175,-60.023,-999.00,4.49,-999.0,no,yes,no,300234068245460,SVPGHI,AOML,UNKNOWN,North
2020-07-07T13:59:57Z,1594130397,2020,14,0,189.5833,189.5833,60.187,-59.984,-999.00,4.62,-999.0,no,yes,no,300234068245460,SVPGHI,AOML,UNKNOWN,North
2020-07-07T15:00:00Z,1594134000,2020,15,0,189.625,189.625,60.191,-59.937,-999.00,4.66,-999.0,no,yes,no,300234068245460,SVPGHI,AOML,UNKNOWN,North
2020-07-07T16:00:02Z,1594137603,2020,16,0,189.6667,189.6667,60.186,-59.885,-999.00,4.53,-999.0,no,yes,no,300234068245460,SVPGHI,AOML,UNKNOWN,North
2020-07-07T16:59:57Z,1594141197,2020,17,0,189.7083,189.7083,60.175,-59.838,-999.00,4.57,-999.0,no,yes,no,300234068245460,SVPGHI,AOML,UNKNOWN,North
2020-07-07T18:02:00Z,1594144921,2020,18,2,189.7514,189.7514,60.156,-59.797,-999.00,4.68,-999.0,no,yes,no,300234068245460,SVPGHI,AOML,UNKNOWN,North
2020-07-07T19:00:02Z,1594148403,2020,19,0,189.7917,189.7917,60.136,-59.776,-999.00,4.84,-999.0,no,yes,no,300234068245460,SVPGHI,AOML,UNKNOWN,North
2020-07-07T19:59:57Z,1594151997,2020,20,0,189.8333,189.8333,60.114,-59.769,-999.00,4.74,-999.0,no,yes,no,300234068245460,SVPGHI,AOML,UNKNOWN,North
2020-07-07T21:00:00Z,1594155600,2020,21,0,189.875,189.875,60.093,-59.783,-999.00,4.7,-999.0,no,yes,no,300234068245460,SVPGHI,AOML,UNKNOWN,North
2020-07-07T22:01:03Z,1594159263,2020,22,1,189.9174,189.9174,60.082,-59.817,-999.00,4.64,-999.0,no,yes,no,300234068245460,SVPGHI,AOML,UNKNOWN,North
2020-07-07T23:00:57Z,1594162858,2020,23,1,189.959,189.959,60.081,-59.851,-999.00,4.61,-999.0,no,yes,no,300234068245460,SVPGHI,AOML,UNKNOWN,North
2020-07-08T00:00:00Z,1594166400,2020,0,0,190.0,190.0,60.089,-59.88,-999.00,4.67,-999.0,no,yes,no,300234068245460,SVPGHI,AOML,UNKNOWN,North
2020-07-08T01:01:03Z,1594170063,2020,1,1,190.0424,190.0424,60.102,-59.907,-999.00,4.57,-999.0,no,yes,no,300234068245460,SVPGHI,AOML,UNKNOWN,North
2020-07-08T03:04:01Z,1594177442,2020,3,4,190.1278,190.1278,60.13,-59.886,-999.00,4.52,-999.0,no,yes,no,300234068245460,SVPGHI,AOML,UNKNOWN,North
2020-07-08T05:03:59Z,1594184639,2020,5,4,190.2111,190.2111,60.137,-59.818,-999.00,4.42,-999.0,no,yes,no,300234068245460,SVPGHI,AOML,UNKNOWN,North
2020-07-08T06:04:01Z,1594188242,2020,6,4,190.2528,190.2528,60.125,-59.774,-999.00,4.37,-999.0,no,yes,no,300234068245460,SVPGHI,AOML,UNKNOWN,North
2020-07-08T07:00:02Z,1594191603,2020,7,0,190.2917,190.2917,60.11,-59.746,-999.00,4.44,-999.0,no,yes,no,300234068245460,SVPGHI,AOML,UNKNOWN,North
2020-07-08T07:59:57Z,1594195197,2020,8,0,190.3333,190.3333,60.09,-59.73,-999.00,4.52,-999.0,no,yes,no,300234068245460,SVPGHI,AOML,UNKNOWN,North
2020-07-08T09:00:00Z,1594198800,2020,9,0,190.375,190.375,60.065,-59.762,-999.00,4.44,-999.0,no,yes,no,300234068245460,SVPGHI,AOML,UNKNOWN,North
2020-07-08T10:03:56Z,1594202636,2020,10,4,190.4194,190.4194,60.055,-59.759,-999.00,4.58,-999.0,no,yes,no,300234068245460,SVPGHI,AOML,UNKNOWN,North
2020-07-08T11:01:58Z,1594206118,2020,11,2,190.4597,190.4597,60.049,-59.789,-999.00,4.58,-999.0,no,yes,no,300234068245460,SVPGHI,AOML,UNKNOWN,North
2020-07-08T12:02:00Z,1594209721,2020,12,2,190.5014,190.5014,60.054,-59.829,-999.00,4.53,-999.0,no,yes,no,300234068245460,SVPGHI,AOML,UNKNOWN,North
2020-07-08T13:00:02Z,1594213203,2020,13,0,190.5417,190.5417,60.063,-59.861,-999.00,4.5,-999.0,no,yes,no,300234068245460,SVPGHI,AOML,UNKNOWN,North
2020-07-08T14:03:59Z,1594217039,2020,14,4,190.5861,190.5861,60.079,-59.875,-999.00,4.61,-999.0,no,yes,no,300234068245460,SVPGHI,AOML,UNKNOWN,North
2020-07-08T15:00:00Z,1594220400,2020,15,0,190.625,190.625,60.094,-59.869,-999.00,4.61,-999.0,no,yes,no,300234068245460,SVPGHI,AOML,UNKNOWN,North
2020-07-08T16:00:02Z,1594224003,2020,16,0,190.6667,190.6667,60.106,-59.834,-999.00,4.69,-999.0,no,yes,no,300234068245460,SVPGHI,AOML,UNKNOWN,North
2020-07-08T16:59:57Z,1594227597,2020,17,0,190.7083,190.7083,60.11,-59.797,-999.00,4.74,-999.0,no,yes,no,300234068245460,SVPGHI,AOML,UNKNOWN,North
2020-07-08T18:00:00Z,1594231200,2020,18,0,190.75,190.75,60.106,-59.755,-999.00,4.62,-999.0,no,yes,no,300234068245460,SVPGHI,AOML,UNKNOWN,North
2020-07-08T19:00:02Z,1594234803,2020,19,0,190.7917,190.7917,60.09,-59.719,-999.00,4.66,-999.0,no,yes,no,300234068245460,SVPGHI,AOML,UNKNOWN,North
2020-07-08T19:59:57Z,1594238397,2020,20,0,190.8333,190.8333,60.07,-59.7,-999.00,4.67,-999.0,no,yes,no,300234068245460,SVPGHI,AOML,UNKNOWN,North
2020-07-08T21:00:00Z,1594242000,2020,21,0,190.875,190.875,60.051,-59.696,-999.00,4.71,-999.0,no,yes,no,300234068245460,SVPGHI,AOML,UNKNOWN,North
2020-07-08T22:00:02Z,1594245603,2020,22,0,190.9167,190.9167,60.035,-59.709,-999.00,4.67,-999.0,no,yes,no,300234068245460,SVPGHI,AOML,UNKNOWN,North
2020-07-08T23:02:58Z,1594249379,2020,23,3,190.9604,190.9604,60.026,-59.736,-999.00,4.7,-999.0,no,yes,no,300234068245460,SVPGHI,AOML,UNKNOWN,North
2020-07-09T00:00:00Z,1594252800,2020,0,0,191.0,191.0,60.023,-59.761,-999.00,4.76,-999.0,no,yes,no,300234068245460,SVPGHI,AOML,UNKNOWN,North
2020-07-09T01:00:02Z,1594256403,2020,1,0,191.0417,191.0417,60.027,-59.789,-999.00,4.76,-999.0,no,yes,no,300234068245460,SVPGHI,AOML,UNKNOWN,North
2020-07-09T01:59:57Z,1594259997,2020,2,0,191.0833,191.0833,60.034,-59.814,-999.00,4.71,-999.0,no,yes,no,300234068245460,SVPGHI,AOML,UNKNOWN,North
2020-07-09T03:02:00Z,1594263721,2020,3,2,191.1264,191.1264,60.053,-59.818,-999.00,4.75,-999.0,no,yes,no,300234068245460,SVPGHI,AOML,UNKNOWN,North
2020-07-09T04:00:02Z,1594267203,2020,4,0,191.1667,191.1667,60.068,-59.809,-999.00,4.65,-999.0,no,yes,no,300234068245460,SVPGHI,AOML,UNKNOWN,North
2020-07-09T04:59:57Z,1594270797,2020,5,0,191.2083,191.2083,60.076,-59.783,-999.00,4.62,-999.0,no,yes,no,300234068245460,SVPGHI,AOML,UNKNOWN,North
2020-07-09T06:01:00Z,1594274460,2020,6,1,191.2507,191.2507,60.078,-59.744,-999.00,4.56,-999.0,no,yes,no,300234068245460,SVPGHI,AOML,UNKNOWN,North
2020-07-09T07:02:03Z,1594278124,2020,7,2,191.2931,191.2931,60.071,-59.704,-999.00,4.52,-999.0,no,yes,no,300234068245460,SVPGHI,AOML,UNKNOWN,North
2020-07-09T07:59:57Z,1594281597,2020,8,0,191.3333,191.3333,60.057,-59.676,-999.00,4.48,-999.0,no,yes,no,300234068245460,SVPGHI,AOML,UNKNOWN,North
2020-07-09T09:00:00Z,1594285200,2020,9,0,191.375,191.375,60.035,-59.652,-999.00,4.48,-999.0,no,yes,no,300234068245460,SVPGHI,AOML,UNKNOWN,North
2020-07-09T10:02:55Z,1594288976,2020,10,3,191.4187,191.4187,60.011,-59.655,-999.00,4.47,-999.0,no,yes,no,300234068245460,SVPGHI,AOML,UNKNOWN,North
2020-07-09T10:59:57Z,1594292397,2020,11,0,191.4583,191.4583,59.997,-59.669,-999.00,4.49,-999.0,no,yes,no,300234068245460,SVPGHI,AOML,UNKNOWN,North
2020-07-09T12:00:00Z,1594296000,2020,12,0,191.5,191.5,59.99,-59.694,-999.00,4.48,-999.0,no,yes,no,300234068245460,SVPGHI,AOML,UNKNOWN,North
2020-07-09T13:59:57Z,1594303197,2020,14,0,191.5833,191.5833,59.992,-59.747,-999.00,4.51,-999.0,no,yes,no,300234068245460,SVPGHI,AOML,UNKNOWN,North
2020-07-09T15:04:01Z,1594307042,2020,15,4,191.6278,191.6278,60.003,-59.77,-999.00,4.52,-999.0,no,yes,no,300234068245460,SVPGHI,AOML,UNKNOWN,North
2020-07-09T16:00:02Z,1594310403,2020,16,0,191.6667,191.6667,60.011,-59.775,-999.00,4.54,-999.0,no,yes,no,300234068245460,SVPGHI,AOML,UNKNOWN,North
2020-07-09T16:59:57Z,1594313997,2020,17,0,191.7083,191.7083,60.019,-59.765,-999.00,4.53,-999.0,no,yes,no,300234068245460,SVPGHI,AOML,UNKNOWN,North
2020-07-09T18:00:00Z,1594317600,2020,18,0,191.75,191.75,60.02,-59.741,-999.00,4.55,-999.0,no,yes,no,300234068245460,SVPGHI,AOML,UNKNOWN,North
2020-07-09T19:01:03Z,1594321263,2020,19,1,191.7924,191.7924,60.017,-59.711,-999.00,4.57,-999.0,no,yes,no,300234068245460,SVPGHI,AOML,UNKNOWN,North
2020-07-09T20:00:57Z,1594324858,2020,20,1,191.834,191.834,60.011,-59.688,-999.00,4.55,-999.0,no,yes,no,300234068245460,SVPGHI,AOML,UNKNOWN,North
2020-07-09T21:00:00Z,1594328400,2020,21,0,191.875,191.875,59.997,-59.664,-999.00,4.55,-999.0,no,yes,no,300234068245460,SVPGHI,AOML,UNKNOWN,North
2020-07-09T22:00:02Z,1594332003,2020,22,0,191.9167,191.9167,59.977,-59.653,-999.00,4.52,-999.0,no,yes,no,300234068245460,SVPGHI,AOML,UNKNOWN,North
2020-07-09T22:59:57Z,1594335597,2020,23,0,191.9583,191.9583,59.962,-59.661,-999.00,4.52,-999.0,no,yes,no,300234068245460,SVPGHI,AOML,UNKNOWN,North
2020-07-10T00:01:00Z,1594339260,2020,0,1,192.0007,192.0007,59.952,-59.684,-999.00,4.53,-999.0,no,yes,no,300234068245460,SVPGHI,AOML,UNKNOWN,North
2020-07-10T01:00:02Z,1594342803,2020,1,0,192.0417,192.0417,59.952,-59.713,-999.00,4.58,-999.0,no,yes,no,300234068245460,SVPGHI,AOML,UNKNOWN,North
2020-07-10T01:59:57Z,1594346397,2020,2,0,192.0833,192.0833,59.952,-59.746,-999.00,4.61,-999.0,no,yes,no,300234068245460,SVPGHI,AOML,UNKNOWN,North
2020-07-10T03:00:00Z,1594350000,2020,3,0,192.125,192.125,59.96,-59.769,-999.00,4.62,-999.0,no,yes,no,300234068245460,SVPGHI,AOML,UNKNOWN,North
2020-07-10T04:03:56Z,1594353836,2020,4,4,192.1694,192.1694,59.971,-59.789,-999.00,4.62,-999.0,no,yes,no,300234068245460,SVPGHI,AOML,UNKNOWN,North
2020-07-10T04:59:57Z,1594357197,2020,5,0,192.2083,192.2083,59.982,-59.79,-999.00,4.62,-999.0,no,yes,no,300234068245460,SVPGHI,AOML,UNKNOWN,North
2020-07-10T06:00:00Z,1594360800,2020,6,0,192.25,192.25,59.992,-59.783,-999.00,4.62,-999.0,no,yes,no,300234068245460,SVPGHI,AOML,UNKNOWN,North
2020-07-10T07:00:02Z,1594364403,2020,7,0,192.2917,192.2917,60.0,-59.763,-999.00,4.61,-999.0,no,yes,no,300234068245460,SVPGHI,AOML,UNKNOWN,North
2020-07-10T07:59:57Z,1594367997,2020,8,0,192.3333,192.3333,60.0,-59.723,-999.00,4.61,-999.0,no,yes,no,300234068245460,SVPGHI,AOML,UNKNOWN,North
2020-07-10T09:01:00Z,1594371660,2020,9,1,192.3757,192.3757,59.992,-59.68,-999.00,4.59,-999.0,no,yes,no,300234068245460,SVPGHI,AOML,UNKNOWN,North
2020-07-10T10:02:55Z,1594375376,2020,10,3,192.4187,192.4187,59.971,-59.646,-999.00,4.59,-999.0,no,yes,no,300234068245460,SVPGHI,AOML,UNKNOWN,North
2020-07-10T10:59:57Z,1594378797,2020,11,0,192.4583,192.4583,59.954,-59.639,-999.00,4.6,-999.0,no,yes,no,300234068245460,SVPGHI,AOML,UNKNOWN,North
2020-07-10T12:01:00Z,1594382460,2020,12,1,192.5007,192.5007,59.935,-59.646,-999.00,4.61,-999.0,no,yes,no,300234068245460,SVPGHI,AOML,UNKNOWN,North
2020-07-10T13:00:02Z,1594386003,2020,13,0,192.5417,192.5417,59.924,-59.675,-999.00,4.66,-999.0,no,yes,no,300234068245460,SVPGHI,AOML,UNKNOWN,North
2020-07-10T15:00:00Z,1594393200,2020,15,0,192.625,192.625,59.922,-59.741,-999.00,4.73,-999.0,no,yes,no,300234068245460,SVPGHI,AOML,UNKNOWN,North
2020-07-10T16:02:55Z,1594396976,2020,16,3,192.6687,192.6687,59.93,-59.778,-999.00,4.74,-999.0,no,yes,no,300234068245460,SVPGHI,AOML,UNKNOWN,North
2020-07-10T16:59:57Z,1594400397,2020,17,0,192.7083,192.7083,59.94,-59.789,-999.00,4.77,-999.0,no,yes,no,300234068245460,SVPGHI,AOML,UNKNOWN,North
2020-07-10T18:01:00Z,1594404060,2020,18,1,192.7507,192.7507,59.954,-59.789,-999.00,4.74,-999.0,no,yes,no,300234068245460,SVPGHI,AOML,UNKNOWN,North
2020-07-10T19:00:02Z,1594407603,2020,19,0,192.7917,192.7917,59.967,-59.763,-999.00,4.72,-999.0,no,yes,no,300234068245460,SVPGHI,AOML,UNKNOWN,North
2020-07-10T19:59:57Z,1594411197,2020,20,0,192.8333,192.8333,59.971,-59.724,-999.00,4.71,-999.0,no,yes,no,300234068245460,SVPGHI,AOML,UNKNOWN,North
2020-07-10T21:00:00Z,1594414800,2020,21,0,192.875,192.875,59.969,-59.677,-999.00,4.8,-999.0,no,yes,no,300234068245460,SVPGHI,AOML,UNKNOWN,North
2020-07-10T22:01:03Z,1594418463,2020,22,1,192.9174,192.9174,59.961,-59.639,-999.00,4.79,-999.0,no,yes,no,300234068245460,SVPGHI,AOML,UNKNOWN,North
2020-07-10T23:02:58Z,1594422179,2020,23,3,192.9604,192.9604,59.942,-59.61,-999.00,4.82,-999.0,no,yes,no,300234068245460,SVPGHI,AOML,UNKNOWN,North
2020-07-11T00:01:00Z,1594425660,2020,0,1,193.0007,193.0007,59.929,-59.603,-999.00,4.77,-999.0,no,yes,no,300234068245460,SVPGHI,AOML,UNKNOWN,North
2020-07-11T01:00:02Z,1594429203,2020,1,0,193.0417,193.0417,59.915,-59.61,-999.00,4.71,-999.0,no,yes,no,300234068245460,SVPGHI,AOML,UNKNOWN,North
2020-07-11T02:00:57Z,1594432858,2020,2,1,193.084,193.084,59.9,-59.633,-999.00,4.68,-999.0,no,yes,no,300234068245460,SVPGHI,AOML,UNKNOWN,North
2020-07-11T03:01:00Z,1594436460,2020,3,1,193.1257,193.1257,59.891,-59.65,-999.00,4.67,-999.0,no,yes,no,300234068245460,SVPGHI,AOML,UNKNOWN,North
2020-07-11T04:02:55Z,1594440176,2020,4,3,193.1687,193.1687,59.889,-59.69,-999.00,4.66,-999.0,no,yes,no,300234068245460,SVPGHI,AOML,UNKNOWN,North
2020-07-11T05:03:59Z,1594443839,2020,5,4,193.2111,193.2111,59.898,-59.719,-999.00,4.59,-999.0,no,yes,no,300234068245460,SVPGHI,AOML,UNKNOWN,North
2020-07-11T06:00:00Z,1594447200,2020,6,0,193.25,193.25,59.908,-59.729,-999.00,4.55,-999.0,no,yes,no,300234068245460,SVPGHI,AOML,UNKNOWN,North
2020-07-11T07:01:03Z,1594450863,2020,7,1,193.2924,193.2924,59.92,-59.725,-999.00,4.54,-999.0,no,yes,no,300234068245460,SVPGHI,AOML,UNKNOWN,North
2020-07-11T08:00:57Z,1594454458,2020,8,1,193.334,193.334,59.935,-59.696,-999.00,4.52,-999.0,no,yes,no,300234068245460,SVPGHI,AOML,UNKNOWN,North
2020-07-11T09:01:00Z,1594458060,2020,9,1,193.3757,193.3757,59.935,-59.671,-999.00,4.53,-999.0,no,yes,no,300234068245460,SVPGHI,AOML,UNKNOWN,North
2020-07-11T10:00:02Z,1594461603,2020,10,0,193.4167,193.4167,59.93,-59.62,-999.00,4.59,-999.0,no,yes,no,300234068245460,SVPGHI,AOML,UNKNOWN,North
2020-07-11T10:59:57Z,1594465197,2020,11,0,193.4583,193.4583,59.921,-59.586,-999.00,4.65,-999.0,no,yes,no,300234068245460,SVPGHI,AOML,UNKNOWN,North
2020-07-11T12:00:00Z,1594468800,2020,12,0,193.5,193.5,59.907,-59.568,-999.00,4.71,-999.0,no,yes,no,300234068245460,SVPGHI,AOML,UNKNOWN,North
2020-07-11T13:00:02Z,1594472403,2020,13,0,193.5417,193.5417,59.896,-59.561,-999.00,4.74,-999.0,no,yes,no,300234068245460,SVPGHI,AOML,UNKNOWN,North
2020-07-11T13:59:57Z,1594475997,2020,14,0,193.5833,193.5833,59.886,-59.574,-999.00,4.75,-999.0,no,yes,no,300234068245460,SVPGHI,AOML,UNKNOWN,North
2020-07-11T15:04:01Z,1594479842,2020,15,4,193.6278,193.6278,59.874,-59.588,-999.00,4.75,-999.0,no,yes,no,300234068245460,SVPGHI,AOML,UNKNOWN,North
2020-07-11T16:00:02Z,1594483203,2020,16,0,193.6667,193.6667,59.868,-59.61,-999.00,4.77,-999.0,no,yes,no,300234068245460,SVPGHI,AOML,UNKNOWN,North
2020-07-11T16:59:57Z,1594486797,2020,17,0,193.7083,193.7083,59.869,-59.634,-999.00,4.77,-999.0,no,yes,no,300234068245460,SVPGHI,AOML,UNKNOWN,North
2020-07-11T18:00:00Z,1594490400,2020,18,0,193.75,193.75,59.876,-59.652,-999.00,4.78,-999.0,no,yes,no,300234068245460,SVPGHI,AOML,UNKNOWN,North
2020-07-11T19:00:02Z,1594494003,2020,19,0,193.7917,193.7917,59.885,-59.659,-999.00,4.76,-999.0,no,yes,no,300234068245460,SVPGHI,AOML,UNKNOWN,North
2020-07-11T19:59:57Z,1594497597,2020,20,0,193.8333,193.8333,59.901,-59.647,-999.00,4.72,-999.0,no,yes,no,300234068245460,SVPGHI,AOML,UNKNOWN,North
2020-07-11T21:04:01Z,1594501442,2020,21,4,193.8778,193.8778,59.907,-59.6,-999.00,4.7,-999.0,no,yes,no,300234068245460,SVPGHI,AOML,UNKNOWN,North
2020-07-11T22:03:56Z,1594505036,2020,22,4,193.9194,193.9194,59.902,-59.57,-999.00,4.71,-999.0,no,yes,no,300234068245460,SVPGHI,AOML,UNKNOWN,North
2020-07-11T23:03:59Z,1594508639,2020,23,4,193.9611,193.9611,59.888,-59.534,-999.00,4.7,-999.0,no,yes,no,300234068245460,SVPGHI,AOML,UNKNOWN,North
2020-07-12T00:01:00Z,1594512060,2020,0,1,194.0007,194.0007,59.881,-59.518,-999.00,4.69,-999.0,no,yes,no,300234068245460,SVPGHI,AOML,UNKNOWN,North
2020-07-12T01:01:03Z,1594515663,2020,1,1,194.0424,194.0424,59.875,-59.503,-999.00,4.69,-999.0,no,yes,no,300234068245460,SVPGHI,AOML,UNKNOWN,North
2020-07-12T01:59:57Z,1594519197,2020,2,0,194.0833,194.0833,59.862,-59.506,-999.00,4.69,-999.0,no,yes,no,300234068245460,SVPGHI,AOML,UNKNOWN,North
2020-07-12T03:01:00Z,1594522860,2020,3,1,194.1257,194.1257,59.853,-59.521,-999.00,4.68,-999.0,no,yes,no,300234068245460,SVPGHI,AOML,UNKNOWN,North
2020-07-12T04:01:03Z,1594526463,2020,4,1,194.1674,194.1674,59.847,-59.537,-999.00,4.69,-999.0,no,yes,no,300234068245460,SVPGHI,AOML,UNKNOWN,North
2020-07-12T04:59:57Z,1594529997,2020,5,0,194.2083,194.2083,59.845,-59.553,-999.00,4.69,-999.0,no,yes,no,300234068245460,SVPGHI,AOML,UNKNOWN,North
2020-07-12T06:00:00Z,1594533600,2020,6,0,194.25,194.25,59.846,-59.567,-999.00,4.69,-999.0,no,yes,no,300234068245460,SVPGHI,AOML,UNKNOWN,North
2020-07-12T07:01:03Z,1594537263,2020,7,1,194.2924,194.2924,59.851,-59.576,-999.00,4.69,-999.0,no,yes,no,300234068245460,SVPGHI,AOML,UNKNOWN,North
2020-07-12T08:00:57Z,1594540858,2020,8,1,194.334,194.334,59.865,-59.569,-999.00,4.71,-999.0,no,yes,no,300234068245460,SVPGHI,AOML,UNKNOWN,North
2020-07-12T09:04:01Z,1594544642,2020,9,4,194.3778,194.3778,59.865,-59.563,-999.00,4.7,-999.0,no,yes,no,300234068245460,SVPGHI,AOML,UNKNOWN,North
2020-07-12T10:02:03Z,1594548124,2020,10,2,194.4181,194.4181,59.866,-59.546,-999.00,4.7,-999.0,no,yes,no,300234068245460,SVPGHI,AOML,UNKNOWN,North
2020-07-12T11:00:57Z,1594551658,2020,11,1,194.459,194.459,59.864,-59.518,-999.00,4.74,-999.0,no,yes,no,300234068245460,SVPGHI,AOML,UNKNOWN,North
2020-07-12T12:01:00Z,1594555260,2020,12,1,194.5007,194.5007,59.857,-59.494,-999.00,4.78,-999.0,no,yes,no,300234068245460,SVPGHI,AOML,UNKNOWN,North
2020-07-12T13:00:02Z,1594558803,2020,13,0,194.5417,194.5417,59.851,-59.473,-999.00,4.79,-999.0,no,yes,no,300234068245460,SVPGHI,AOML,UNKNOWN,North
2020-07-12T14:03:59Z,1594562639,2020,14,4,194.5861,194.5861,59.84,-59.465,-999.00,4.82,-999.0,no,yes,no,300234068245460,SVPGHI,AOML,UNKNOWN,North
2020-07-12T15:04:01Z,1594566242,2020,15,4,194.6278,194.6278,59.822,-59.466,-999.00,4.83,-999.0,no,yes,no,300234068245460,SVPGHI,AOML,UNKNOWN,North
2020-07-12T16:01:03Z,1594569663,2020,16,1,194.6674,194.6674,59.809,-59.473,-999.00,4.84,-999.0,no,yes,no,300234068245460,SVPGHI,AOML,UNKNOWN,North
2020-07-12T17:03:59Z,1594573439,2020,17,4,194.7111,194.7111,59.803,-59.494,-999.00,4.87,-999.0,no,yes,no,300234068245460,SVPGHI,AOML,UNKNOWN,North
2020-07-12T18:00:00Z,1594576800,2020,18,0,194.75,194.75,59.8,-59.514,-999.00,4.9,-999.0,no,yes,no,300234068245460,SVPGHI,AOML,UNKNOWN,North
2020-07-12T19:00:02Z,1594580403,2020,19,0,194.7917,194.7917,59.801,-59.533,-999.00,4.9,-999.0,no,yes,no,300234068245460,SVPGHI,AOML,UNKNOWN,North
2020-07-12T20:03:59Z,1594584239,2020,20,4,194.8361,194.8361,59.81,-59.544,-999.00,4.94,-999.0,no,yes,no,300234068245460,SVPGHI,AOML,UNKNOWN,North
2020-07-12T21:03:01Z,1594587781,2020,21,3,194.8771,194.8771,59.816,-59.55,-999.00,4.96,-999.0,no,yes,no,300234068245460,SVPGHI,AOML,UNKNOWN,North
2020-07-12T22:03:56Z,1594591436,2020,22,4,194.9194,194.9194,-90.0,-180.0,-999.00,4.94,-999.0,no,yes,no,300234068245460,SVPGHI,AOML,UNKNOWN,North
2020-07-12T23:03:59Z,1594595039,2020,23,4,194.9611,194.9611,-90.0,-180.0,-999.00,4.9,-999.0,no,yes,no,300234068245460,SVPGHI,AOML,UNKNOWN,North
2020-07-13T00:04:01Z,1594598642,2020,0,4,195.0028,195.0028,-90.0,-180.0,-999.00,4.9,-999.0,no,yes,no,300234068245460,SVPGHI,AOML,UNKNOWN,North
2020-07-13T01:03:56Z,1594602236,2020,1,4,195.0444,195.0444,-90.0,-180.0,-999.00,4.89,-999.0,no,yes,no,300234068245460,SVPGHI,AOML,UNKNOWN,North
2020-07-13T02:03:59Z,1594605839,2020,2,4,195.0861,195.0861,59.806,-59.457,-999.00,4.9,-999.0,no,yes,no,300234068245460,SVPGHI,AOML,UNKNOWN,North
2020-07-13T03:04:01Z,1594609442,2020,3,4,195.1278,195.1278,-90.0,-180.0,-999.00,4.9,-999.0,no,yes,no,300234068245460,SVPGHI,AOML,UNKNOWN,North
2020-07-13T04:00:02Z,1594612803,2020,4,0,195.1667,195.1667,59.784,-59.463,-999.00,4.88,-999.0,no,yes,no,300234068245460,SVPGHI,AOML,UNKNOWN,North
2020-07-13T05:03:59Z,1594616639,2020,5,4,195.2111,195.2111,59.776,-59.479,-999.00,4.88,-999.0,no,yes,no,300234068245460,SVPGHI,AOML,UNKNOWN,North
2020-07-13T06:02:00Z,1594620121,2020,6,2,195.2514,195.2514,59.766,-59.495,-999.00,4.88,-999.0,no,yes,no,300234068245460,SVPGHI,AOML,UNKNOWN,North
2020-07-13T07:00:02Z,1594623603,2020,7,0,195.2917,195.2917,59.76,-59.519,-999.00,4.88,-999.0,no,yes,no,300234068245460,SVPGHI,AOML,UNKNOWN,North
2020-07-13T08:03:59Z,1594627439,2020,8,4,195.3361,195.3361,59.768,-59.534,-999.00,4.87,-999.0,no,yes,no,300234068245460,SVPGHI,AOML,UNKNOWN,North
2020-07-13T09:04:01Z,1594631042,2020,9,4,195.3778,195.3778,59.771,-59.546,-999.00,4.86,-999.0,no,yes,no,300234068245460,SVPGHI,AOML,UNKNOWN,North
2020-07-13T10:01:03Z,1594634463,2020,10,1,195.4174,195.4174,59.777,-59.542,-999.00,4.84,-999.0,no,yes,no,300234068245460,SVPGHI,AOML,UNKNOWN,North
2020-07-13T11:00:57Z,1594638058,2020,11,1,195.459,195.459,59.781,-59.526,-999.00,4.85,-999.0,no,yes,no,300234068245460,SVPGHI,AOML,UNKNOWN,North
2020-07-13T12:04:01Z,1594641842,2020,12,4,195.5028,195.5028,59.78,-59.504,-999.00,4.84,-999.0,no,yes,no,300234068245460,SVPGHI,AOML,UNKNOWN,North
2020-07-13T13:03:56Z,1594645436,2020,13,4,195.5444,195.5444,59.774,-59.492,-999.00,4.84,-999.0,no,yes,no,300234068245460,SVPGHI,AOML,UNKNOWN,North
2020-07-13T15:04:01Z,1594652642,2020,15,4,195.6278,195.6278,59.756,-59.46,-999.00,4.91,-999.0,no,yes,no,300234068245460,SVPGHI,AOML,UNKNOWN,North
2020-07-13T16:03:56Z,1594656236,2020,16,4,195.6694,195.6694,59.749,-59.462,-999.00,4.92,-999.0,no,yes,no,300234068245460,SVPGHI,AOML,UNKNOWN,North
2020-07-13T18:00:00Z,1594663200,2020,18,0,195.75,195.75,59.731,-59.492,-999.00,4.99,-999.0,no,yes,no,300234068245460,SVPGHI,AOML,UNKNOWN,North
2020-07-13T19:00:02Z,1594666803,2020,19,0,195.7917,195.7917,59.727,-59.513,-999.00,5.01,-999.0,no,yes,no,300234068245460,SVPGHI,AOML,UNKNOWN,North